Total_Precipitation_Accumulation
1.44 1.35 1.24 1.11 1.11 1.14 1.16 1.23 1.36 1.28 1.02 0.77 0.72 0.73 0.78 0.85 0.98 0.96 0.91 1.08 1.12 1.11 1.15 1.18 1.19 1.12 1.08 1.08 1.13 1.21 1.30 1.36 1.43 1.48 1.49 1.47 1.50 1.62
1.32 1.33 1.27 1.17 1.14 1.16 1.21 1.27 1.34 1.39 1.24 0.89 0.77 0.78 0.88 0.98 1.14 1.05 0.98 1.15 1.11 1.07 1.08 1.07 1.03 0.99 0.95 0.94 0.97 1.03 1.09 1.14 1.22 1.35 1.47 1.53 1.61 1.72
1.22 1.25 1.27 1.24 1.25 1.24 1.29 1.35 1.40 1.47 1.46 1.14 0.94 0.90 0.94 0.96 1.00 0.97 0.93 0.95 0.94 1.03 0.96 0.92 0.88 0.87 0.85 0.83 0.83 0.87 0.91 0.97 1.05 1.15 1.29 1.39 1.42 1.47
1.14 1.20 1.23 1.24 1.30 1.32 1.36 1.39 1.42 1.42 1.41 1.27 1.04 0.93 0.88 0.83 0.84 0.84 0.82 0.79 0.76 0.87 0.85 0.79 0.78 0.78 0.78 0.77 0.76 0.76 0.80 0.86 0.92 0.97 1.03 1.09 1.13 1.16
1.01 1.04 1.05 1.11 1.19 1.22 1.27 1.32 1.31 1.31 1.30 1.21 1.01 0.85 0.79 0.77 0.81 0.80 0.75 0.72 0.66 0.69 0.71 0.67 0.65 0.65 0.67 0.69 0.71 0.71 0.67 0.67 0.68 0.71 0.78 0.88 0.97 1.01
0.90 0.94 0.96 1.00 1.04 1.11 1.18 1.22 1.23 1.24 1.25 1.23 1.12 0.94 0.81 0.74 0.75 0.76 0.74 0.67 0.62 0.56 0.65 0.64 0.62 0.59 0.56 0.54 0.53 0.53 0.54 0.55 0.60 0.64 0.68 0.74 0.82 0.91
0.92 0.97 1.02 1.13 1.14 1.09 1.07 1.06 1.09 1.16 1.18 1.19 1.09 0.94 0.81 0.73 0.72 0.66 0.66 0.67 0.67 0.60 0.60 0.59 0.55 0.53 0.52 0.53 0.51 0.49 0.50 0.55 0.59 0.63 0.69 0.75 0.79 0.86
0.96 0.95 0.99 1.10 1.08 1.06 1.00 0.96 0.98 1.06 1.11 1.07 0.96 0.81 0.65 0.56 0.56 0.62 0.68 0.76 0.76 0.58 0.57 0.58 0.54 0.56 0.50 0.48 0.54 0.52 0.50 0.53 0.57 0.61 0.65 0.69 0.72 0.76
0.94 0.93 0.88 0.85 0.88 0.79 0.84 0.89 0.89 0.90 0.87 0.83 0.80 0.67 0.58 0.53 0.62 0.73 0.74 0.73 0.62 0.48 0.56 0.67 0.61 0.57 0.49 0.49 0.57 0.53 0.52 0.54 0.57 0.58 0.60 0.62 0.67 0.70
0.79 0.77 0.73 0.68 0.67 0.68 0.70 0.75 0.67 0.63 0.63 0.59 0.58 0.55 0.55 0.58 0.68 0.79 0.83 0.85 0.74 0.64 0.64 0.71 0.61 0.55 0.49 0.49 0.57 0.54 0.55 0.59 0.62 0.64 0.65 0.65 0.67 0.71
0.60 0.59 0.59 0.57 0.65 0.73 0.68 0.63 0.57 0.55 0.59 0.63 0.65 0.64 0.70 0.76 0.80 0.88 0.95 1.05 0.95 0.72 0.60 0.59 0.53 0.50 0.50 0.52 0.56 0.61 0.58 0.59 0.62 0.65 0.68 0.71 0.69 0.71
0.42 0.42 0.49 0.51 0.61 0.69 0.62 0.59 0.56 0.47 0.48 0.53 0.56 0.56 0.55 0.60 0.74 0.74 0.81 1.06 0.98 0.75 0.47 0.50 0.54 0.62 0.78 0.56 0.50 0.54 0.59 0.63 0.61 0.60 0.62 0.66 0.73 0.76
0.39 0.38 0.40 0.51 0.57 0.61 0.62 0.54 0.53 0.56 0.53 0.52 0.54 0.55 0.54 0.56 0.59 0.59 0.65 0.91 1.11 0.85 0.44 0.65 0.86 0.74 0.91 0.68 0.48 0.47 0.49 0.54 0.59 0.59 0.60 0.62 0.70 0.82
0.39 0.36 0.40 0.53 0.60 0.60 0.57 0.55 0.61 0.66 0.58 0.58 0.60 0.58 0.54 0.52 0.50 0.51 0.55 0.61 0.71 0.73 0.54 0.80 1.21 0.99 1.10 0.91 0.55 0.45 0.47 0.49 0.54 0.57 0.58 0.70 0.76 0.82
0.42 0.45 0.49 0.54 0.57 0.55 0.54 0.57 0.59 0.55 0.55 0.58 0.55 0.50 0.46 0.48 0.54 0.60 0.63 0.64 0.65 0.62 0.59 0.63 0.87 0.98 1.23 1.21 0.79 0.49 0.49 0.52 0.52 0.59 0.65 0.70 0.75 0.84
0.49 0.50 0.52 0.53 0.52 0.51 0.52 0.52 0.51 0.50 0.55 0.57 0.54 0.52 0.56 0.61 0.64 0.65 0.72 0.72 0.77 0.68 0.59 0.55 0.63 0.94 1.19 0.96 0.93 0.76 0.58 0.63 0.58 0.64 0.72 0.69 0.67 0.74
0.58 0.56 0.52 0.49 0.47 0.46 0.45 0.45 0.47 0.49 0.54 0.53 0.59 0.63 0.63 0.64 0.63 0.62 0.71 0.78 0.80 0.64 0.56 0.55 0.58 0.68 0.84 0.91 0.93 0.70 0.60 0.65 0.69 0.79 0.89 0.86 0.71 0.70
0.69 0.60 0.49 0.43 0.42 0.43 0.45 0.46 0.47 0.49 0.51 0.56 0.62 0.66 0.69 0.69 0.66 0.63 0.68 0.77 0.76 0.61 0.56 0.55 0.65 0.81 0.80 0.70 0.65 0.66 0.68 0.71 0.71 0.77 0.89 1.07 0.87 0.70
0.62 0.49 0.42 0.41 0.41 0.43 0.47 0.50 0.49 0.47 0.53 0.61 0.67 0.69 0.74 0.75 0.74 0.72 0.71 0.75 0.72 0.63 0.57 0.58 0.75 1.13 1.20 0.74 0.45 0.50 0.73 0.82 0.81 0.87 0.93 1.10 1.13 0.85
0.45 0.40 0.39 0.41 0.45 0.49 0.52 0.54 0.55 0.56 0.58 0.61 0.64 0.70 0.78 0.84 0.81 0.75 0.73 0.77 0.78 0.72 0.64 0.58 0.66 1.01 1.43 1.17 0.81 0.48 0.51 0.79 1.10 1.20 1.00 0.88 0.87 0.80
0.38 0.37 0.40 0.46 0.51 0.55 0.57 0.60 0.64 0.65 0.64 0.69 0.71 0.71 0.78 0.91 0.86 0.74 0.75 0.75 0.81 0.82 0.74 0.57 0.50 0.65 1.04 1.40 1.15 0.59 0.50 0.59 0.90 1.33 1.37 1.28 1.02 0.79
0.43 0.44 0.45 0.49 0.55 0.59 0.63 0.66 0.69 0.68 0.70 0.75 0.76 0.77 0.80 0.91 0.92 0.83 0.82 0.85 0.80 0.74 0.71 0.62 0.61 0.74 1.01 1.32 1.02 0.61 0.52 0.54 0.61 0.70 1.00 1.53 2.01 1.82
0.50 0.52 0.52 0.55 0.60 0.65 0.69 0.71 0.70 0.66 0.68 0.76 0.78 0.78 0.82 0.87 0.82 0.85 0.85 0.88 0.91 0.86 0.82 0.78 0.73 0.75 0.80 0.87 0.91 0.72 0.57 0.53 0.54 0.59 0.66 0.75 0.99 1.23